Flag for Pakistan Weather past 2 weeks in Rawalpindi, Pakistan

Now
84 °F

Passing clouds.


Feels Like: 91 °F
Forecast: 79 / 108 °F
Wind: 5 mph from East

Location: Islamabad Airport

Current Time: Jul 11, 2014 at 3:13:40 AM

Latest Report: Jul 11, 2014 at 3:00 AM


Visibility: 4 mi

Pressure: 29.53 "Hg

Humidity: 70%

Dew point: 73 °F

Location of RawalpindiLocation

Historic Weather in Rawalpindi — Graph

°F

Rawalpindi temperature yesterday

Maximum temperature yesterday: 99 °F (at 2:00 PM)
Minimum temperature yesterday: 77 °F (at 12:00 AM)
Average temperature yesterday: 89 °F

Past Weeks' High & Low Weather Summary

 TemperatureHumidityPressure
High108 °F (Jun 28, 4:00 PM)79% (Jun 26, 3:00 AM)29.71 "Hg (Jun 26, 3:00 AM)
Low77 °F (Jun 26, 4:00 AM)22% (Jun 30, 1:00 PM)29.47 "Hg (Jun 30, 4:00 PM)
Average89 °F53%29.60 "Hg
* Reported Jun 26 3:00 AM — Jul 11 2:00 AM, Rawalpindi, Weather by CustomWeather, © 2014

Note: Actual official high and low records may vary slightly from our data, if they occured in-between our weather recording intervals... More about our weather records

Advertising

Rawalpindi weather history for previous 24 hours

 ConditionsComfort  
Time TempWeatherWind HumidityBarometerVisibility
2:00 AM
Jul 11
84 °FPassing clouds.5 mph66%29.53 "Hg4 mi
1:00 AM88 °FPassing clouds.5 mph62%29.53 "Hg4 mi
12:00 AM90 °FPassing clouds.5 mph59%29.53 "Hg4 mi
10:00 PM
Jul 10
91 °FPassing clouds.7 mph56%29.53 "Hg5 mi
9:00 PM91 °FPassing clouds.7 mph56%29.53 "Hg5 mi
8:00 PM95 °FPassing clouds.5 mph47%29.53 "Hg5 mi
7:00 PM97 °FPassing clouds.5 mph44%29.53 "Hg5 mi
6:00 PM99 °FPassing clouds.9 mph42%29.53 "Hg5 mi
5:00 PM99 °FPassing clouds.9 mph42%29.53 "Hg5 mi
4:00 PM99 °FPassing clouds.12 mph39%29.53 "Hg5 mi
3:00 PM99 °FPassing clouds.9 mph39%29.56 "Hg5 mi
2:00 PM99 °FPassing clouds.9 mph37%29.59 "Hg5 mi
1:00 PM97 °FPassing clouds.9 mph34%29.62 "Hg5 mi
12:00 PM95 °FScattered clouds.12 mph39%29.62 "Hg4 mi
11:00 AM91 °FScattered clouds.12 mph46%29.65 "Hg4 mi
10:00 AM90 °FScattered clouds.9 mph55%29.65 "Hg4 mi
9:00 AM86 °FScattered clouds.9 mph59%29.62 "Hg4 mi
8:00 AM84 °FPassing clouds.7 mph58%29.62 "Hg4 mi
7:00 AM81 °FPassing clouds.5 mph70%29.59 "Hg4 mi
5:00 AM77 °FPassing clouds.No wind79%29.59 "Hg4 mi
4:00 AM77 °FPassing clouds.No wind79%29.56 "Hg4 mi
3:00 AM77 °FPassing clouds.7 mph79%29.56 "Hg4 mi
Weather by CustomWeather, © 2014

See weather overviewHow to use our weather pages